Holbrook, NY

11:59 PM EST on February 26, 2017 (GMT -0500)
Long Island Mac Arthur

Weather History for KISP - August, 2014

Change the Weather History Date:

Sunday, August 17, 2014

  Actual Average Record
Temperature  
Mean Temperature 74 °F 73 °F  
Max Temperature 83 °F 81 °F 91 °F (1997)
Min Temperature 64 °F 66 °F 58 °F (2000)
Degree Days  
Heating Degree Days 0 0  
Month to date heating degree days 0 0  
Since 1 June heating degree days 2 40  
Since 1 July heating degree days 0 2  
Cooling Degree Days 9 8  
Month to date cooling degree days 136 148  
Year to date cooling degree days 660 588  
Since 1 June cooling degree days 631 564  
Growing Degree Days 24 (Base 50)    
Moisture  
Dew Point 60 °F    
Average Humidity 64    
Maximum Humidity 87    
Minimum Humidity 40    
Precipitation  
Precipitation T in 0.13 in 1.27 in (1992)
Month to date precipitation 14.03 2.21  
Year to date precipitation 40.52 29.37  
Snow  
Snow 0.00 in 0.00 in - ()
Month to date snowfall 0.0 0.0  
Since 1 July snowfall 0.0 0.0  
Snow Depth 0.00 in    
Sea Level Pressure  
Sea Level Pressure 29.84 in    
Wind  
Wind Speed 8 mph (WNW)    
Max Wind Speed 15 mph    
Max Gust Speed 21 mph    
Visibility 10 miles    
Events Rain    
T = Trace of Precipitation, MM = Missing Value Source: NWS Daily Summary

Daily Weather History Graph

Daily Weather History Graph

Search for Another Location

Airport or City:

Trip Planner

Search our weather history database for the weather conditions in past years. The results will help you decide how hot, cold, wet, or windy it might be!

Date:

Astronomy

Aug. 17, 2014 Rise Set
Actual Time 6:04 AM EDT 7:47 PM EDT
Civil Twilight 5:35 AM EDT 8:16 PM EDT
Nautical Twilight 4:59 AM EDT 8:52 PM EDT
Astronomical Twilight 4:21 AM EDT 9:29 PM EDT
Moon No Moon Rise 1:50 PM EDT (8/17)
Length of Visible Light 14h 41m
Length of Day
13h 43m
Waning Gibbous, 48% of the Moon is Illuminated
Aug 17
Waning Gibbous
Aug 25
New
Sep 2
First Quarter
Sep 8
Full
Sep 15
Last Quarter

Hourly Weather History & Observations

Time (EDT) Temp. Heat Index Dew Point Humidity Pressure Visibility Wind Dir Wind Speed Gust Speed Precip Events Conditions
12:56 AM 68.0 °F - 64.0 °F 87% 29.90 in 10.0 mi WSW 3.5 mph - N/A   Clear
1:56 AM 68.0 °F - 64.9 °F 90% 29.88 in 10.0 mi SW 3.5 mph - N/A   Clear
2:56 AM 68.0 °F - 64.9 °F 90% 29.87 in 10.0 mi SW 4.6 mph - N/A   Clear
3:56 AM 68.0 °F - 64.0 °F 87% 29.87 in 10.0 mi SW 4.6 mph - N/A   Overcast
4:56 AM 66.9 °F - 61.0 °F 81% 29.86 in 10.0 mi SW 4.6 mph - N/A   Mostly Cloudy
5:56 AM 66.0 °F - 59.0 °F 78% 29.86 in 10.0 mi SW 3.5 mph - N/A   Scattered Clouds
6:56 AM 66.9 °F - 60.1 °F 79% 29.86 in 10.0 mi SW 4.6 mph - N/A   Scattered Clouds
7:56 AM 70.0 °F - 62.1 °F 76% 29.85 in 10.0 mi SW 5.8 mph - N/A   Mostly Cloudy
8:56 AM 70.0 °F - 60.1 °F 71% 29.86 in 10.0 mi WSW 6.9 mph - 0.00 in Rain Light Rain
9:56 AM 69.1 °F - 60.1 °F 73% 29.85 in 10.0 mi West 6.9 mph - 0.00 in Rain Light Rain
10:56 AM 75.9 °F - 62.1 °F 62% 29.84 in 10.0 mi West 9.2 mph - 0.00 in   Scattered Clouds
12:56 PM 78.1 °F - 61.0 °F 56% 29.82 in 10.0 mi WNW 5.8 mph - N/A   Overcast
1:56 PM 78.1 °F - 61.0 °F 56% 29.81 in 10.0 mi WNW 8.1 mph - N/A   Overcast
2:56 PM 79.0 °F - 61.0 °F 54% 29.80 in 10.0 mi NW 8.1 mph - N/A   Mostly Cloudy
3:56 PM 82.0 °F 82.1 °F 59.0 °F 45% 29.78 in 10.0 mi WNW 11.5 mph - N/A   Mostly Cloudy
4:56 PM 82.0 °F 81.6 °F 55.9 °F 41% 29.79 in 10.0 mi NW 12.7 mph 20.7 mph N/A   Mostly Cloudy
5:56 PM 79.0 °F - 57.9 °F 48% 29.80 in 10.0 mi North 11.5 mph - N/A   Mostly Cloudy
6:56 PM 78.1 °F - 57.9 °F 50% 29.80 in 10.0 mi NNW 8.1 mph - N/A   Scattered Clouds
7:56 PM 75.0 °F - 57.9 °F 55% 29.83 in 10.0 mi NNW 9.2 mph - N/A   Scattered Clouds
8:56 PM 73.0 °F - 55.9 °F 55% 29.84 in 10.0 mi NNW 9.2 mph - N/A   Scattered Clouds
9:56 PM 70.0 °F - 55.0 °F 59% 29.86 in 10.0 mi NNW 6.9 mph - N/A   Partly Cloudy
10:56 PM 68.0 °F - 55.9 °F 65% 29.86 in 10.0 mi NNW 6.9 mph - N/A   Partly Cloudy
11:56 PM 69.1 °F - 55.0 °F 61% 29.86 in 10.0 mi NNW 12.7 mph - N/A   Clear